SCP
0 0 0 0 0 1 1 1 1 1 1 1 1 0 0 0 0 0 0 0 0 0 0 0 0 0 0 0 0 0 0 0 0 0 0 0 0 0 0 0 0 0 0
0 0 0 1 1 1 1 1 1 1 1 1 0 0 0 0 0 0 0 0 0 0 0 0 0 0 0 0 0 0 0 0 0 0 0 0 0 0 0 0 0 0 0
1 0 1 1 1 1 0 0 0 0 0 0 0 0 0 0 0 0 0 0 0 0 0 0 0 0 0 0 0 0 0 0 0 0 0 0 0 0 0 0 0 0 0
1 1 1 1 1 0 0 0 0 0 0 0 0 0 0 0 0 0 0 0 0 0 0 0 0 0 0 0 0 0 0 0 0 0 0 0 0 0 0 0 0 0 0
1 1 1 1 0 0 0 0 0 0 0 0 0 0 0 0 0 0 0 0 0 0 0 0 0 0 0 0 0 0 0 0 0 0 0 0 0 0 0 0 0 0 0
1 1 1 1 0 0 0 0 0 0 0 0 0 0 0 0 0 0 0 0 0 0 0 0 0 0 0 0 0 0 0 0 0 0 0 0 0 0 0 0 0 0 0
1 1 1 1 1 0 0 0 0 0 0 0 0 0 0 0 0 0 0 0 0 0 0 0 0 0 0 0 0 0 0 0 0 0 0 0 0 0 0 0 0 0 0
1 1 1 1 1 0 0 0 0 0 0 0 0 0 0 0 0 0 0 0 0 0 0 0 0 0 0 0 0 0 0 0 0 0 0 0 0 0 0 0 0 0 0
2 1 1 1 0 0 0 0 0 1 0 0 0 0 0 0 0 0 0 0 0 0 0 0 0 0 0 0 0 0 0 0 0 0 0 0 0 0 0 0 0 0 0
2 2 1 1 0 0 0 0 0 0 0 0 0 0 0 0 0 0 0 0 0 0 0 0 0 0 0 0 0 0 0 0 0 0 0 0 0 0 0 0 0 0 1
2 2 1 1 1 0 0 0 0 0 0 0 0 0 0 0 0 0 0 0 0 0 0 0 0 0 0 0 0 0 0 0 0 0 0 0 0 0 0 1 0 0 0
2 2 1 1 1 0 0 0 0 0 0 0 0 0 0 0 0 0 0 0 0 0 0 0 0 0 0 0 0 0 0 0 0 0 0 0 0 0 0 1 1 1 0
2 2 1 1 1 0 0 0 0 0 0 0 0 0 0 0 0 0 0 0 0 0 0 0 0 0 0 0 0 0 0 0 0 0 0 0 0 0 0 0 1 1 0
1 1 1 1 1 1 1 1 1 1 1 0 0 0 0 0 0 0 0 0 0 0 0 0 0 0 0 0 0 0 0 0 0 0 0 0 0 0 0 0 0 0 0
1 1 1 1 1 1 1 1 1 1 1 1 0 0 0 0 0 0 0 0 0 0 0 0 0 0 0 0 0 0 0 0 0 0 0 0 0 1 1 0 0 0 0
1 1 1 1 1 1 1 1 1 1 1 1 1 0 0 0 0 0 0 0 0 0 0 0 0 0 0 0 0 0 0 0 0 0 0 0 1 1 1 1 0 0 0
1 1 1 1 1 1 1 1 1 1 1 1 1 1 1 0 0 0 0 0 0 0 0 0 0 0 0 0 0 0 0 0 0 0 0 0 1 1 1 1 1 1 1
1 1 1 1 1 2 2 1 1 1 1 1 1 1 1 1 1 1 1 1 0 0 0 0 0 0 0 0 0 0 0 0 0 0 0 0 1 1 1 1 1 1 1
1 1 1 1 2 2 2 1 1 1 1 1 1 1 1 1 1 1 1 1 1 1 1 1 1 1 0 0 0 0 0 0 0 0 0 0 1 1 1 1 1 1 1
2 2 1 1 1 2 1 1 1 1 1 1 1 1 1 1 1 1 1 1 1 1 1 1 1 1 1 1 1 0 0 0 0 0 0 0 0 1 1 1 1 1 1
2 2 2 2 2 1 1 1 1 1 1 1 0 0 0 1 1 1 1 1 1 1 1 1 1 1 1 1 1 1 0 0 0 0 0 0 0 0 0 0 1 1 1
3 3 4 3 2 1 1 1 1 0 0 0 0 0 0 0 1 1 1 1 1 1 1 1 1 1 1 1 1 1 0 0 0 0 0 0 0 0 0 0 0 0 0
3 3 4 4 2 1 1 1 1 1 0 0 0 0 0 0 0 1 1 1 1 1 1 1 1 1 1 1 1 1 0 0 0 0 0 0 0 0 0 0 0 0 0
3 3 4 4 3 2 1 1 1 1 1 1 0 0 0 0 0 1 1 1 1 1 1 0 0 0 0 0 0 0 0 0 0 0 0 0 0 0 0 0 0 0 0
3 3 3 3 3 2 1 1 1 1 1 0 0 0 0 0 0 1 1 1 1 1 1 0 0 0 0 0 0 0 0 0 0 0 0 0 0 0 0 0 0 0 0
3 3 3 3 3 2 1 1 1 1 1 1 0 0 0 0 0 1 1 1 1 1 1 0 0 0 0 0 0 0 0 0 0 0 0 0 0 0 0 0 0 0 0
Wind_Speed
3 3 10 12 12 13 14 14 15 15 15 15 15 14 14 14 14 13 13 12 12 12 12 12 12 12 12 11 12 12 12 12 13 13 13 13 13 14 14 14 13 10 14
5 5 11 12 12 13 13 14 14 14 15 14 14 14 13 13 13 13 12 12 12 12 12 12 12 12 12 11 11 12 12 12 12 12 12 12 13 13 13 13 13 9 14
7 5 9 12 12 12 13 13 13 13 13 13 13 13 13 13 12 12 12 11 11 12 12 11 11 12 12 11 11 11 11 11 12 12 12 7 9 12 12 13 13 14 13
7 5 8 12 12 12 12 12 12 12 12 12 12 12 12 12 12 12 11 11 11 11 11 11 11 12 12 11 11 11 11 11 12 12 7 6 6 11 12 12 13 13 13
6 5 8 13 12 12 12 11 11 12 11 11 11 11 11 11 11 11 11 11 11 11 10 11 11 11 11 11 11 10 10 11 12 10 6 5 5 11 12 12 13 13 13
6 5 7 13 12 12 11 11 11 11 11 11 10 10 10 10 10 10 10 11 10 10 10 10 11 11 11 10 10 10 10 11 10 7 6 5 5 10 12 12 12 13 13
6 4 6 12 11 11 11 11 10 10 10 10 9 9 9 9 9 10 10 10 10 10 10 10 10 10 10 10 9 9 10 11 7 6 5 5 5 9 12 12 12 12 12
6 4 5 10 11 10 10 10 10 9 9 9 8 8 8 9 9 9 9 9 9 9 9 9 9 10 9 9 9 9 10 10 8 7 6 5 7 9 11 11 11 12 12
5 4 3 4 6 9 10 9 9 9 9 8 8 8 8 8 8 8 8 9 9 9 9 8 9 9 8 8 8 9 9 10 6 4 5 4 7 9 10 10 10 11 11
4 3 3 3 3 3 4 8 9 8 8 8 8 8 8 7 7 8 7 7 8 8 8 8 8 8 8 7 7 8 9 9 5 4 3 4 7 8 9 10 10 10 10
5 2 2 3 3 3 3 5 6 7 7 6 5 7 6 4 4 4 5 6 7 7 7 7 7 7 7 6 6 8 8 3 4 3 3 5 7 8 9 9 9 9 9
7 5 3 3 3 3 3 3 2 2 2 2 2 3 3 3 2 3 3 5 6 6 6 6 6 6 5 3 4 6 3 4 3 3 3 7 7 8 8 8 8 8 9
7 7 6 5 4 3 2 2 1 1 2 2 3 3 3 2 2 2 2 2 3 4 3 4 4 3 3 2 3 3 3 3 2 2 3 7 7 8 8 8 8 8 8
7 7 5 5 4 4 2 2 2 2 1 1 2 3 2 2 1 1 1 2 2 2 2 2 2 2 3 3 3 3 3 2 2 1 2 7 7 7 8 8 8 8 8
8 7 6 5 5 4 3 2 3 2 2 2 2 2 3 2 2 1 1 1 1 1 1 1 1 2 2 2 2 3 3 3 3 2 2 6 7 7 7 8 8 8 8
9 8 7 7 6 5 4 3 2 2 2 2 2 3 3 2 2 2 1 1 0 1 1 1 1 1 1 1 1 2 2 2 2 3 2 3 6 7 7 8 8 8 9
9 8 7 7 6 5 5 4 3 2 2 2 2 3 3 3 3 2 2 1 1 1 1 1 1 1 1 1 1 1 1 2 2 3 3 2 3 6 8 8 8 8 9
8 8 8 7 7 6 4 3 2 2 2 2 2 3 4 4 4 3 2 2 1 1 1 1 1 1 0 1 1 1 1 1 2 3 3 3 2 3 5 8 8 9 10
9 9 8 7 7 6 4 3 3 2 3 2 2 2 3 4 4 3 2 2 2 2 1 1 1 1 1 1 1 0 1 1 2 3 3 4 4 3 3 5 8 9 10
7 7 7 6 6 5 3 2 1 2 2 2 2 3 3 3 4 3 2 2 2 2 2 1 2 1 1 1 1 0 1 1 2 3 3 3 3 4 4 4 4 5 9
7 7 8 7 6 5 3 3 2 2 2 2 2 3 4 4 4 4 3 3 3 3 3 3 2 2 1 1 1 1 2 1 1 2 2 2 3 4 4 4 4 3 3
8 8 8 8 8 6 4 3 2 2 2 2 2 2 3 4 4 4 4 3 3 3 3 3 3 2 1 2 2 1 1 2 1 1 1 2 3 2 3 4 4 4 3
9 9 9 8 8 7 5 3 2 2 1 1 1 2 3 3 4 3 4 4 3 3 3 4 4 4 3 2 2 3 2 3 1 1 1 1 1 1 2 2 3 3 3
8 7 7 7 7 7 6 5 5 4 4 4 2 2 2 3 3 4 4 4 4 3 4 4 4 3 3 3 2 2 2 3 2 1 1 1 1 1 2 2 2 3 3
7 7 6 6 6 6 6 7 6 4 3 2 1 2 2 2 3 3 4 4 4 4 4 4 3 4 3 3 3 2 2 1 2 2 2 1 1 1 1 2 2 2 2
6 6 6 7 6 6 7 6 6 6 5 3 3 3 2 1 2 2 3 3 4 3 4 4 4 4 4 4 3 3 3 3 3 3 3 2 1 1 1 1 1 1 1
Wind_Direction
157 152 134 123 117 112 110 109 108 107 107 109 112 112 114 115 115 115 114 114 114 112 112 113 114 116 117 117 119 120 120 120 120 121 120 121 120 119 119 117 115 114 115
145 146 135 126 121 116 113 111 111 111 110 110 112 112 114 115 116 115 115 114 113 113 111 111 112 114 117 120 120 120 121 121 122 125 124 121 122 121 120 122 121 121 121
133 137 134 130 125 120 117 115 113 113 113 113 113 114 115 115 116 116 115 113 113 113 112 112 112 114 115 118 119 119 121 120 118 119 113 109 120 124 124 125 126 124 123
132 131 135 133 128 124 121 119 118 116 115 115 115 116 117 117 118 118 115 114 113 113 113 114 115 114 114 116 118 119 120 118 116 112 102 108 119 128 126 125 127 125 124
125 129 143 136 132 128 125 123 121 119 119 118 118 118 119 119 120 119 118 117 114 113 113 115 117 116 115 116 117 118 118 119 115 106 99 100 108 127 126 127 129 127 125
125 131 146 138 135 132 130 127 125 125 124 123 123 122 122 121 121 121 120 116 113 112 112 115 116 116 115 115 117 114 115 113 104 102 101 107 116 129 130 130 129 127 127
132 134 143 139 138 136 134 133 131 128 126 125 125 125 125 123 123 123 120 117 114 112 110 112 115 117 115 114 116 116 116 115 106 107 107 109 120 128 130 130 130 129 128
133 130 137 144 142 141 139 137 134 131 129 128 125 124 124 124 123 124 123 120 117 113 110 110 111 114 115 114 115 117 120 121 117 117 115 117 128 131 132 132 134 134 132
123 123 127 138 143 146 145 142 140 137 133 130 128 126 125 126 126 126 123 122 119 115 112 110 111 111 111 110 116 121 126 123 119 124 128 125 132 133 136 137 139 137 137
119 121 125 119 117 123 138 146 144 141 138 135 133 131 129 126 126 125 120 122 121 120 119 116 111 109 106 104 116 126 127 122 123 125 127 140 141 141 143 142 143 144 143
151 134 130 124 118 118 135 154 147 146 144 138 134 128 111 78 79 101 123 128 126 125 124 120 114 110 101 95 111 122 117 117 127 131 140 153 154 153 150 148 148 150 147
172 174 160 148 142 142 156 124 108 108 108 99 89 91 83 78 82 98 117 129 127 124 120 116 112 105 92 79 98 106 109 124 132 144 162 166 165 163 158 155 157 158 157
175 180 173 166 162 159 141 128 113 104 101 99 103 99 91 77 66 59 53 72 74 84 73 81 80 81 94 100 98 108 127 130 142 154 169 173 173 169 167 165 168 169 167
177 187 179 169 169 170 156 153 142 138 127 118 114 118 111 100 86 73 64 60 59 67 76 73 81 86 96 111 128 139 149 153 157 155 182 184 182 178 176 173 177 179 175
183 188 183 177 182 175 170 178 166 164 157 149 142 148 149 147 146 124 84 62 66 83 99 97 97 102 107 119 149 161 165 167 172 172 190 195 189 188 185 184 187 185 181
188 189 182 187 186 175 177 180 170 168 168 161 168 175 169 167 165 155 143 121 90 101 119 120 120 118 117 124 150 162 170 168 176 180 191 203 201 196 195 197 196 192 190
189 186 185 187 181 180 183 185 173 170 168 176 183 185 179 174 175 170 169 178 179 142 118 102 93 87 114 119 136 156 169 185 189 192 195 205 210 206 203 205 203 197 199
182 181 186 188 181 183 178 173 164 165 173 186 190 193 191 182 177 174 181 194 181 148 139 137 127 111 115 138 180 218 189 199 212 209 204 205 209 213 214 211 207 206 208
183 179 179 180 176 175 164 163 164 169 183 188 191 197 198 188 181 180 193 197 171 157 170 180 144 157 176 188 208 236 225 221 226 222 213 211 211 212 218 226 222 219 220
179 174 174 171 167 158 147 140 140 158 181 183 194 205 196 190 184 182 195 196 169 166 184 183 172 156 166 181 206 321 283 248 231 232 225 214 212 218 221 229 233 236 234
169 170 173 171 169 162 159 158 164 186 191 192 205 203 193 189 186 186 198 189 181 189 198 188 168 170 182 148 116 358 333 308 254 242 229 221 222 224 225 227 226 228 237
179 180 179 179 175 181 175 159 161 162 185 193 203 197 198 192 192 197 194 195 193 193 191 188 175 167 181 167 154 130 330 335 334 271 223 221 230 229 233 227 223 224 231
186 185 187 184 180 183 168 139 119 102 92 161 208 211 208 196 199 201 195 194 197 194 203 204 188 180 191 197 182 161 173 229 291 334 288 235 228 225 233 225 223 224 227
189 180 182 179 178 178 170 170 167 175 188 202 197 205 210 204 206 200 195 196 196 197 206 212 198 193 183 198 199 204 195 173 177 274 331 316 262 245 246 245 241 229 224
174 173 175 171 176 177 177 181 180 184 189 183 179 202 217 219 214 205 197 196 200 206 211 212 198 199 197 196 192 183 191 200 194 191 249 292 345 299 258 243 246 240 224
164 166 167 170 178 177 179 184 188 188 182 177 190 203 214 216 232 226 210 201 205 208 211 212 207 204 207 207 205 195 184 185 193 191 214 232 248 284 293 269 252 246 226